2001 SQ3  

Epoch 2001 Sep. 28.0 TT = JDT 2452180.5                 Nakano

M  72.58188              (2000.0)            P               Q

n   0.84367105     Peri.  267.92284     -0.09599610     +0.99502951

a   1.1092275      Node   356.24666     -0.67377827     -0.08453643

e   0.2541994      Incl.   23.85762     -0.73267155     -0.05262950

P   1.17           H   21.7           G   0.15           U   *

Residuals in seconds of arc 

010917 704  0.2-  0.1+    010918 557  0.3+  0.5-    010922 360  0.9+  0.1+  

010917 704  0.4+  0.3-    010918 118  0.4+  0.3-    010922 360  0.7+  0.3+  

010917 704  1.0+  0.1+    010918 557  0.2-  0.5-    010922 360  0.7+  0.2+  

010917 704  0.2+  0.1-    010918 557  0.0   0.3-    010923 642  0.9-  0.4+  

010917 704  0.6+  0.3+    010918 557  1.1-  0.4-    010923 642 (1.6-  2.6+) 

010918 691 (0.7-  2.2+)   010918 557  0.1-  0.4-    010923 642  0.7-  0.2-  

010918 691  0.2-  0.3+    010918 118  0.3+  0.5-    010923 642 (4.2+  3.5-) 

010918 691  0.3-  0.9+    010918 596  0.0   0.5+    010923 642  0.4+  0.1+  

010918 151  0.6-  1.2+    010918 596 (2.4-  0.0 )   010924 642  1.7-  0.1-  

010918 151 (2.2-  0.9+)   010918 596  0.1+  0.6-    010924 642  1.4-  0.1-  

010918 151  0.1-  0.1-    010918 596  1.9+  0.1-    010924 642 (2.2+  0.6-) 

010918 151  0.4-  0.6+    010918 113  0.8-  0.5+    010924 642 (1.7-  4.5+) 

010918 557  0.3-  1.0+    010918 113 (0.9-  2.0+)   010924 642  0.5+  1.5-  

010918 557  0.0   0.2+    010918 113  1.4+  1.2-    010924 704  0.0   0.2-  

010918 046  0.1+  0.5-    010918 113  1.5-  0.4-    010924 704  0.3-  0.2-  

010918 046  0.0   0.8+    010919 684  0.2+  0.1-    010924 704  0.4+  0.1+  

010918 046  0.2-  0.4+    010919 684  0.8-  0.4+    010924 704  0.1+  0.5+  

010918 046  0.2+  0.1+    010919 684  0.1-  0.1-    010924 704  0.3-  0.1+  

010918 046  0.5-  0.1+    010919 684  0.4+  0.2-    010924 704  1.0-  0.8+  

010918 046  0.4-  0.6+    010920 684  0.1-  0.1+    010924 704  1.7+  0.8-  

010918 046  1.4-  0.0     010920 684  0.4-  0.1+    010924 704  0.1+  0.1+  

010918 046  0.7+  0.4-    010920 684  0.2-  0.2+    010924 704 (3.0-  1.1+) 

010918 046  0.6-  0.6-    010920 684  0.5-  0.3+    010925 704  0.3-  0.5+  

010918 046  0.1-  0.4-    010920 684  0.1-  0.1+    010925 704  0.1-  0.3+  

010918 046  0.0   0.2-    010920 684  0.2-  0.3+    010925 704  0.2-  0.1+  

010918 557  0.1+  0.1-    010922 402  0.6+  0.1-    010925 704  0.1-  0.1-  

010918 557  0.3+  0.5-    010922 402  1.8+  0.1-    010925 704  0.4-  0.3-  

010918 557  0.0   0.5-    010922 402  1.7+  0.2-                            

 

NAKANO

         **** Don't distribute anyone except personal use only ****

                (C) Copyright 2001 OAA/ComputingSection

write mail from CFAD0::NAKANO on 2001-09-26 22:52:13(JST).

 



2001 SQ3  

Epoch 2001 Sep. 28.0 TT = JDT 2452180.5                 Nakano

M  72.75497              (2000.0)            P               Q

n   0.84475768     Peri.  267.83543     -0.09763506     +0.99487066

a   1.1082761      Node   356.24083     -0.67443229     -0.08568701

e   0.2534849      Incl.   23.79566     -0.73185277     -0.05375968

P   1.17           H   21.8           G   0.15           U   *

 

–ß‚è‚Ü‚·B